Terminal Aerodrome Forecast
Issued by NWS Newport/Morehead City, NC

Home | Current Version | Previous Version | Graphics & Text | Print | Product List | Glossary On
Versions: 1 2 3 4 5 6 7 8 9 10 11 12 13 14 15
361
FTUS42 KMHX 210522
TAFEWN
TAF
KEWN 210522Z 2106/2206 21005KT P6SM FEW250
     FM212200 20010KT P6SM FEW050
     FM212300 19005KT P6SM FEW250=

USA.gov is the U.S. government's official web portal to all federal, state and local government web resources and services.